����������;��������(kVARh)
2016-11-28 00:00;15,8
2016-11-28 00:15;10,55
2016-11-28 00:30;10,9
2016-11-28 00:45;10,7
2016-11-28 01:00;12,2
2016-11-28 01:15;14,2
2016-11-28 01:30;15
2016-11-28 01:45;14,5
2016-11-28 02:00;15,15
2016-11-28 02:15;15,4
2016-11-28 02:30;13,05
2016-11-28 02:45;11,85
2016-11-28 03:00;12,9
2016-11-28 03:15;12,4
2016-11-28 03:30;13,1
2016-11-28 03:45;13,15
2016-11-28 04:00;12,75
2016-11-28 04:15;12,7
2016-11-28 04:30;11,9
2016-11-28 04:45;12,75
2016-11-28 05:00;12,4
2016-11-28 05:15;12,35
2016-11-28 05:30;18,9
2016-11-28 05:45;20,85
2016-11-28 06:00;20,8
2016-11-28 06:15;17,75
2016-11-28 06:30;16,65
2016-11-28 06:45;12,3
2016-11-28 07:00;14,7
2016-11-28 07:15;11,15
2016-11-28 07:30;18,5
2016-11-28 07:45;25,35
2016-11-28 08:00;31,15
2016-11-28 08:15;30,3
2016-11-28 08:30;20,15
2016-11-28 08:45;24,15
2016-11-28 09:00;22,05
2016-11-28 09:15;28,8
2016-11-28 09:30;26,55
2016-11-28 09:45;34,65
2016-11-28 10:00;42,45
2016-11-28 10:15;39,2
2016-11-28 10:30;40,1
2016-11-28 10:45;44,75
2016-11-28 11:00;42,65
2016-11-28 11:15;41,2
2016-11-28 11:30;42,95
2016-11-28 11:45;44,35
2016-11-28 12:00;44,8
2016-11-28 12:15;49,5
2016-11-28 12:30;48,45
2016-11-28 12:45;46,1
2016-11-28 13:00;48,15
2016-11-28 13:15;53,7
2016-11-28 13:30;48,7
2016-11-28 13:45;42,55
2016-11-28 14:00;45,25
2016-11-28 14:15;51,8
2016-11-28 14:30;45,45
2016-11-28 14:45;45,95
2016-11-28 15:00;54
2016-11-28 15:15;47
2016-11-28 15:30;45,8
2016-11-28 15:45;46
2016-11-28 16:00;42,9
2016-11-28 16:15;41,45
2016-11-28 16:30;43,35
2016-11-28 16:45;42,5
2016-11-28 17:00;33,35
2016-11-28 17:15;40
2016-11-28 17:30;34,6
2016-11-28 17:45;23,55
2016-11-28 18:00;23,1
2016-11-28 18:15;28,25
2016-11-28 18:30;28,8
2016-11-28 18:45;28,95
2016-11-28 19:00;26,8
2016-11-28 19:15;26,05
2016-11-28 19:30;26,25
2016-11-28 19:45;21,35
2016-11-28 20:00;20,25
2016-11-28 20:15;19,8
2016-11-28 20:30;22,85
2016-11-28 20:45;25,35
2016-11-28 21:00;25,1
2016-11-28 21:15;23,9
2016-11-28 21:30;23,7
2016-11-28 21:45;21,6
2016-11-28 22:00;17,5
2016-11-28 22:15;19,75
2016-11-28 22:30;23,25
2016-11-28 22:45;21,9
2016-11-28 23:00;20,1
2016-11-28 23:15;19,9
2016-11-28 23:30;19,9
2016-11-28 23:45;17,55
2016-11-29 00:00;21,9
2016-11-29 00:15;18,05
2016-11-29 00:30;5,6
2016-11-29 00:45;4,95
2016-11-29 01:00;1,4
2016-11-29 01:15;1,45
2016-11-29 01:30;2,65
2016-11-29 01:45;2,05
2016-11-29 02:00;2,95
2016-11-29 02:15;2,35
2016-11-29 02:30;12,25
2016-11-29 02:45;3,85
2016-11-29 03:00;3,65
2016-11-29 03:15;3,15
2016-11-29 03:30;7,5
2016-11-29 03:45;5,75
2016-11-29 04:00;6,55
2016-11-29 04:15;6,9
2016-11-29 04:30;8
2016-11-29 04:45;5,45
2016-11-29 05:00;3,65
2016-11-29 05:15;5,2
2016-11-29 05:30;4,6
2016-11-29 05:45;3,2
2016-11-29 06:00;2,7
2016-11-29 06:15;2,6
2016-11-29 06:30;2,75
2016-11-29 06:45;2,2
2016-11-29 07:00;1,65
2016-11-29 07:15;5,75
2016-11-29 07:30;11,85
2016-11-29 07:45;10,1
2016-11-29 08:00;8,8
2016-11-29 08:15;20,3
2016-11-29 08:30;22,4
2016-11-29 08:45;19,75
2016-11-29 09:00;20,9
2016-11-29 09:15;18,6
2016-11-29 09:30;20,75
2016-11-29 09:45;22,4
2016-11-29 10:00;28,25
2016-11-29 10:15;27,85
2016-11-29 10:30;30
2016-11-29 10:45;29,7
2016-11-29 11:00;29,4
2016-11-29 11:15;34,35
2016-11-29 11:30;36,15
2016-11-29 11:45;43,2
2016-11-29 12:00;44,8
2016-11-29 12:15;45,05
2016-11-29 12:30;48,6
2016-11-29 12:45;48,25
2016-11-29 13:00;46,75
2016-11-29 13:15;48,05
2016-11-29 13:30;50,45
2016-11-29 13:45;47,25
2016-11-29 14:00;46,15
2016-11-29 14:15;39,55
2016-11-29 14:30;38,4
2016-11-29 14:45;44,3
2016-11-29 15:00;43,9
2016-11-29 15:15;40,7
2016-11-29 15:30;40,5
2016-11-29 15:45;40,6
2016-11-29 16:00;39,55
2016-11-29 16:15;40,2
2016-11-29 16:30;36,3
2016-11-29 16:45;38,85
2016-11-29 17:00;36,7
2016-11-29 17:15;33,25
2016-11-29 17:30;31,55
2016-11-29 17:45;27,5
2016-11-29 18:00;26,65
2016-11-29 18:15;25,05
2016-11-29 18:30;25,05
2016-11-29 18:45;25,65
2016-11-29 19:00;21,4
2016-11-29 19:15;20,4
2016-11-29 19:30;19,05
2016-11-29 19:45;16,2
2016-11-29 20:00;15,25
2016-11-29 20:15;12,35
2016-11-29 20:30;13,2
2016-11-29 20:45;11,5
2016-11-29 21:00;12
2016-11-29 21:15;16,95
2016-11-29 21:30;15,95
2016-11-29 21:45;19,25
2016-11-29 22:00;11,45
2016-11-29 22:15;7,1
2016-11-29 22:30;6,8
2016-11-29 22:45;7,25
2016-11-29 23:00;9,8
2016-11-29 23:15;9
2016-11-29 23:30;9,7
2016-11-29 23:45;11,1
2016-11-30 00:00;14,3
2016-11-30 00:15;5,8
2016-11-30 00:30;1,05
2016-11-30 00:45;0,95
2016-11-30 01:00;2,6
2016-11-30 01:15;2,2
2016-11-30 01:30;3,65
2016-11-30 01:45;4,55
2016-11-30 02:00;2,9
2016-11-30 02:15;2,35
2016-11-30 02:30;1,55
2016-11-30 02:45;1,55
2016-11-30 03:00;1,8
2016-11-30 03:15;2,9
2016-11-30 03:30;2,7
2016-11-30 03:45;2,4
2016-11-30 04:00;1,95
2016-11-30 04:15;2,5
2016-11-30 04:30;1,4
2016-11-30 04:45;2,65
2016-11-30 05:00;2,25
2016-11-30 05:15;3
2016-11-30 05:30;13,1
2016-11-30 05:45;14,9
2016-11-30 06:00;13,7
2016-11-30 06:15;7,1
2016-11-30 06:30;5,15
2016-11-30 06:45;6,65
2016-11-30 07:00;4,5
2016-11-30 07:15;9,7
2016-11-30 07:30;12,55
2016-11-30 07:45;10,95
2016-11-30 08:00;11,2
2016-11-30 08:15;17,75
2016-11-30 08:30;23,8
2016-11-30 08:45;37,25
2016-11-30 09:00;42,15
2016-11-30 09:15;35,45
2016-11-30 09:30;47,45
2016-11-30 09:45;43,45
2016-11-30 10:00;47,6
2016-11-30 10:15;48
2016-11-30 10:30;52,9
2016-11-30 10:45;51,2
2016-11-30 11:00;48,5
2016-11-30 11:15;54,35
2016-11-30 11:30;56,45
2016-11-30 11:45;56,65
2016-11-30 12:00;57,35
2016-11-30 12:15;61,35
2016-11-30 12:30;72,05
2016-11-30 12:45;70,6
2016-11-30 13:00;67,25
2016-11-30 13:15;69,6
2016-11-30 13:30;63,2
2016-11-30 13:45;60,95
2016-11-30 14:00;54,25
2016-11-30 14:15;53,4
2016-11-30 14:30;64,6
2016-11-30 14:45;63,75
2016-11-30 15:00;58,35
2016-11-30 15:15;55,45
2016-11-30 15:30;61,9
2016-11-30 15:45;59,1
2016-11-30 16:00;60,9
2016-11-30 16:15;53,55
2016-11-30 16:30;48,1
2016-11-30 16:45;54,95
2016-11-30 17:00;48,3
2016-11-30 17:15;50,35
2016-11-30 17:30;40,2
2016-11-30 17:45;44,55
2016-11-30 18:00;44,4
2016-11-30 18:15;36,45
2016-11-30 18:30;35,1
2016-11-30 18:45;35,35
2016-11-30 19:00;24,5
2016-11-30 19:15;27,5
2016-11-30 19:30;24,6
2016-11-30 19:45;25
2016-11-30 20:00;21,55
2016-11-30 20:15;21
2016-11-30 20:30;22,05
2016-11-30 20:45;21,4
2016-11-30 21:00;19,5
2016-11-30 21:15;18,1
2016-11-30 21:30;17,5
2016-11-30 21:45;13,85
2016-11-30 22:00;10,95
2016-11-30 22:15;13,4
2016-11-30 22:30;15,45
2016-11-30 22:45;15,15
2016-11-30 23:00;17,75
2016-11-30 23:15;10,55
2016-11-30 23:30;12,6
2016-11-30 23:45;9,6
2016-12-01 00:00;7,1
2016-12-01 00:15;8
2016-12-01 00:30;9,6
2016-12-01 00:45;10,1
2016-12-01 01:00;11,75
2016-12-01 01:15;13,65
2016-12-01 01:30;13,2
2016-12-01 01:45;8,6
2016-12-01 02:00;8,4
2016-12-01 02:15;8,5
2016-12-01 02:30;8,6
2016-12-01 02:45;9,5
2016-12-01 03:00;11,05
2016-12-01 03:15;10,45
2016-12-01 03:30;11,1
2016-12-01 03:45;11,3
2016-12-01 04:00;12,75
2016-12-01 04:15;19,25
2016-12-01 04:30;19,7
2016-12-01 04:45;19,55
2016-12-01 05:00;19,05
2016-12-01 05:15;19,7
2016-12-01 05:30;19,4
2016-12-01 05:45;22,15
2016-12-01 06:00;32,65
2016-12-01 06:15;34,1
2016-12-01 06:30;32,45
2016-12-01 06:45;28,85
2016-12-01 07:00;26
2016-12-01 07:15;25,4
2016-12-01 07:30;24,3
2016-12-01 07:45;40,6
2016-12-01 08:00;30
2016-12-01 08:15;30,5
2016-12-01 08:30;32,85
2016-12-01 08:45;39,4
2016-12-01 09:00;46,7
2016-12-01 09:15;55,1
2016-12-01 09:30;65
2016-12-01 09:45;66,55
2016-12-01 10:00;73,45
2016-12-01 10:15;70,95
2016-12-01 10:30;69,45
2016-12-01 10:45;76,55
2016-12-01 11:00;67,9
2016-12-01 11:15;68,3
2016-12-01 11:30;71,3
2016-12-01 11:45;63
2016-12-01 12:00;79,4
2016-12-01 12:15;72,75
2016-12-01 12:30;80,05
2016-12-01 12:45;70,1
2016-12-01 13:00;65,45
2016-12-01 13:15;73,6
2016-12-01 13:30;65,05
2016-12-01 13:45;66,7
2016-12-01 14:00;60,8
2016-12-01 14:15;66
2016-12-01 14:30;63,3
2016-12-01 14:45;67,35
2016-12-01 15:00;66,05
2016-12-01 15:15;67,3
2016-12-01 15:30;60,4
2016-12-01 15:45;53,9
2016-12-01 16:00;50,85
2016-12-01 16:15;56,6
2016-12-01 16:30;49,9
2016-12-01 16:45;46,5
2016-12-01 17:00;42,6
2016-12-01 17:15;41
2016-12-01 17:30;36,1
2016-12-01 17:45;31,85
2016-12-01 18:00;26,35
2016-12-01 18:15;26,9
2016-12-01 18:30;20,85
2016-12-01 18:45;30,45
2016-12-01 19:00;32,05
2016-12-01 19:15;28,25
2016-12-01 19:30;23,1
2016-12-01 19:45;21,45
2016-12-01 20:00;23,3
2016-12-01 20:15;19,8
2016-12-01 20:30;17,4
2016-12-01 20:45;20,25
2016-12-01 21:00;19,2
2016-12-01 21:15;22,15
2016-12-01 21:30;18,9
2016-12-01 21:45;17,7
2016-12-01 22:00;20,4
2016-12-01 22:15;21,5
2016-12-01 22:30;22,9
2016-12-01 22:45;25,75
2016-12-01 23:00;23,6
2016-12-01 23:15;21,4
2016-12-01 23:30;11,1
2016-12-01 23:45;5,1
2016-12-02 00:00;3,85
2016-12-02 00:15;4,35
2016-12-02 00:30;6,35
2016-12-02 00:45;7,6
2016-12-02 01:00;8,45
2016-12-02 01:15;9,55
2016-12-02 01:30;11,7
2016-12-02 01:45;8,3
2016-12-02 02:00;6,2
2016-12-02 02:15;7,6
2016-12-02 02:30;7,15
2016-12-02 02:45;7,4
2016-12-02 03:00;10,95
2016-12-02 03:15;11,2
2016-12-02 03:30;8,85
2016-12-02 03:45;9,85
2016-12-02 04:00;10,6
2016-12-02 04:15;14,3
2016-12-02 04:30;20,05
2016-12-02 04:45;18,85
2016-12-02 05:00;19
2016-12-02 05:15;19,5
2016-12-02 05:30;18
2016-12-02 05:45;16,5
2016-12-02 06:00;28,2
2016-12-02 06:15;27,6
2016-12-02 06:30;22,8
2016-12-02 06:45;19,45
2016-12-02 07:00;19,25
2016-12-02 07:15;17,15
2016-12-02 07:30;18,55
2016-12-02 07:45;26,7
2016-12-02 08:00;21,9
2016-12-02 08:15;20,25
2016-12-02 08:30;25,05
2016-12-02 08:45;31,3
2016-12-02 09:00;29,9
2016-12-02 09:15;44,1
2016-12-02 09:30;37,35
2016-12-02 09:45;38,5
2016-12-02 10:00;41,65
2016-12-02 10:15;36,7
2016-12-02 10:30;39,8
2016-12-02 10:45;42,6
2016-12-02 11:00;40,3
2016-12-02 11:15;41,85
2016-12-02 11:30;38,15
2016-12-02 11:45;39,2
2016-12-02 12:00;35,25
2016-12-02 12:15;42,7
2016-12-02 12:30;39,6
2016-12-02 12:45;37,9
2016-12-02 13:00;41,85
2016-12-02 13:15;40,75
2016-12-02 13:30;37,35
2016-12-02 13:45;45,7
2016-12-02 14:00;35,35
2016-12-02 14:15;39,35
2016-12-02 14:30;36,3
2016-12-02 14:45;36,55
2016-12-02 15:00;34,55
2016-12-02 15:15;39,85
2016-12-02 15:30;33
2016-12-02 15:45;37,5
2016-12-02 16:00;28,85
2016-12-02 16:15;34,4
2016-12-02 16:30;30,8
2016-12-02 16:45;30,75
2016-12-02 17:00;21,55
2016-12-02 17:15;18
2016-12-02 17:30;25,2
2016-12-02 17:45;17,4
2016-12-02 18:00;20,45
2016-12-02 18:15;14,25
2016-12-02 18:30;10,85
2016-12-02 18:45;16,35
2016-12-02 19:00;19
2016-12-02 19:15;15,7
2016-12-02 19:30;15,7
2016-12-02 19:45;15,3
2016-12-02 20:00;13,95
2016-12-02 20:15;16,55
2016-12-02 20:30;15,7
2016-12-02 20:45;14,95
2016-12-02 21:00;13,65
2016-12-02 21:15;18,25
2016-12-02 21:30;17,8
2016-12-02 21:45;17,2
2016-12-02 22:00;16,55
2016-12-02 22:15;16,35
2016-12-02 22:30;18,45
2016-12-02 22:45;18,7
2016-12-02 23:00;15,05
2016-12-02 23:15;13,7
2016-12-02 23:30;11,95
2016-12-02 23:45;4,75
2016-12-03 00:00;4,85
2016-12-03 00:15;5,05
2016-12-03 00:30;4,7
2016-12-03 00:45;7
2016-12-03 01:00;8,25
2016-12-03 01:15;8,3
2016-12-03 01:30;6,05
2016-12-03 01:45;5,7
2016-12-03 02:00;6,75
2016-12-03 02:15;7,8
2016-12-03 02:30;7,25
2016-12-03 02:45;9,15
2016-12-03 03:00;9,05
2016-12-03 03:15;10,45
2016-12-03 03:30;11,1
2016-12-03 03:45;10,7
2016-12-03 04:00;11,35
2016-12-03 04:15;10,6
2016-12-03 04:30;11,1
2016-12-03 04:45;15,3
2016-12-03 05:00;14,65
2016-12-03 05:15;15,2
2016-12-03 05:30;14,5
2016-12-03 05:45;14,8
2016-12-03 06:00;14,6
2016-12-03 06:15;15,2
2016-12-03 06:30;12,85
2016-12-03 06:45;8,95
2016-12-03 07:00;8,45
2016-12-03 07:15;7,15
2016-12-03 07:30;6,6
2016-12-03 07:45;7,1
2016-12-03 08:00;7,55
2016-12-03 08:15;6,85
2016-12-03 08:30;5,5
2016-12-03 08:45;5,3
2016-12-03 09:00;3,95
2016-12-03 09:15;3,35
2016-12-03 09:30;2,35
2016-12-03 09:45;1,15
2016-12-03 10:00;0,8
2016-12-03 10:15;1,55
2016-12-03 10:30;0,9
2016-12-03 10:45;9,05
2016-12-03 11:00;3,2
2016-12-03 11:15;5,3
2016-12-03 11:30;4,1
2016-12-03 11:45;7,15
2016-12-03 12:00;5,65
2016-12-03 12:15;5,05
2016-12-03 12:30;4,95
2016-12-03 12:45;5,15
2016-12-03 13:00;6,5
2016-12-03 13:15;2,95
2016-12-03 13:30;3,9
2016-12-03 13:45;2,15
2016-12-03 14:00;3
2016-12-03 14:15;2,35
2016-12-03 14:30;2,1
2016-12-03 14:45;1,35
2016-12-03 15:00;1,7
2016-12-03 15:15;3,25
2016-12-03 15:30;2,75
2016-12-03 15:45;3,85
2016-12-03 16:00;3
2016-12-03 16:15;3,3
2016-12-03 16:30;2,6
2016-12-03 16:45;2,05
2016-12-03 17:00;1,9
2016-12-03 17:15;2,3
2016-12-03 17:30;2,05
2016-12-03 17:45;5,25
2016-12-03 18:00;4,35
2016-12-03 18:15;4,1
2016-12-03 18:30;4,35
2016-12-03 18:45;9,6
2016-12-03 19:00;8,7
2016-12-03 19:15;8,85
2016-12-03 19:30;8,95
2016-12-03 19:45;8,85
2016-12-03 20:00;9,4
2016-12-03 20:15;8,65
2016-12-03 20:30;8,45
2016-12-03 20:45;8,3
2016-12-03 21:00;9,1
2016-12-03 21:15;10,9
2016-12-03 21:30;13,3
2016-12-03 21:45;15,35
2016-12-03 22:00;18,25
2016-12-03 22:15;21,25
2016-12-03 22:30;20,45
2016-12-03 22:45;21,1
2016-12-03 23:00;21,2
2016-12-03 23:15;10,4
2016-12-03 23:30;9,9
2016-12-03 23:45;10,3
2016-12-04 00:00;10,6
2016-12-04 00:15;11,55
2016-12-04 00:30;12,95
2016-12-04 00:45;11,45
2016-12-04 01:00;11
2016-12-04 01:15;9,65
2016-12-04 01:30;8,2
2016-12-04 01:45;6,2
2016-12-04 02:00;7,25
2016-12-04 02:15;7,25
2016-12-04 02:30;8,2
2016-12-04 02:45;9,2
2016-12-04 03:00;9,5
2016-12-04 03:15;9,2
2016-12-04 03:30;9,9
2016-12-04 03:45;7,55
2016-12-04 04:00;8,15
2016-12-04 04:15;8,45
2016-12-04 04:30;9,15
2016-12-04 04:45;9,8
2016-12-04 05:00;11,15
2016-12-04 05:15;10,7
2016-12-04 05:30;10,95
2016-12-04 05:45;11,3
2016-12-04 06:00;10,8
2016-12-04 06:15;11,05
2016-12-04 06:30;10,9
2016-12-04 06:45;10,75
2016-12-04 07:00;10,2
2016-12-04 07:15;8,95
2016-12-04 07:30;9,5
2016-12-04 07:45;10,15
2016-12-04 08:00;9,7
2016-12-04 08:15;7,1
2016-12-04 08:30;11,35
2016-12-04 08:45;14,65
2016-12-04 09:00;13,4
2016-12-04 09:15;12,7
2016-12-04 09:30;11,45
2016-12-04 09:45;10,15
2016-12-04 10:00;9,8
2016-12-04 10:15;9,2
2016-12-04 10:30;8,4
2016-12-04 10:45;10,5
2016-12-04 11:00;10,1
2016-12-04 11:15;8,65
2016-12-04 11:30;7,5
2016-12-04 11:45;6,75
2016-12-04 12:00;7,75
2016-12-04 12:15;7,4
2016-12-04 12:30;11,65
2016-12-04 12:45;6,3
2016-12-04 13:00;6,1
2016-12-04 13:15;5,25
2016-12-04 13:30;5,4
2016-12-04 13:45;4,55
2016-12-04 14:00;1,7
2016-12-04 14:15;1,75
2016-12-04 14:30;2,35
2016-12-04 14:45;2,35
2016-12-04 15:00;2,25
2016-12-04 15:15;2,2
2016-12-04 15:30;2,3
2016-12-04 15:45;3,2
2016-12-04 16:00;3,9
2016-12-04 16:15;2,3
2016-12-04 16:30;2,45
2016-12-04 16:45;2,2
2016-12-04 17:00;2
2016-12-04 17:15;0,95
2016-12-04 17:30;0,7
2016-12-04 17:45;1,1
2016-12-04 18:00;2,7
2016-12-04 18:15;2,5
2016-12-04 18:30;3
2016-12-04 18:45;5,3
2016-12-04 19:00;6,45
2016-12-04 19:15;5,55
2016-12-04 19:30;6
2016-12-04 19:45;3,1
2016-12-04 20:00;2,6
2016-12-04 20:15;3,6
2016-12-04 20:30;3,6
2016-12-04 20:45;3,7
2016-12-04 21:00;4,35
2016-12-04 21:15;4,35
2016-12-04 21:30;5,95
2016-12-04 21:45;4,9
2016-12-04 22:00;5,25
2016-12-04 22:15;7,1
2016-12-04 22:30;4,6
2016-12-04 22:45;4,45
2016-12-04 23:00;5,15
2016-12-04 23:15;4,6
2016-12-04 23:30;3,35
2016-12-04 23:45;3,4

